STARLINK-34677, 65031

Orbit data source: Space-Track

STARLINK-34677, 65031 is a payload satellite owned by SpaceX/Seattle (US) in LEO that was launched on Wed, 30 Jul 2025 UTC via an FALCON 9 launch vehicle from the Air Force Eastern Test Range (AFETR). Payload-class satellites include a variety of spacecraft equipped with specific instruments for various scientific and technological missions. These include communications satellites like Starlink; space stations such as the ISS; scientific satellites like the Hubble; Earth observation satellites from companies like Planet Labs, Umbra, and HawkEye 360; GPS; miniature CubeSats for education and research; and military/defense satellites.

Loading next visibility...
Identifier
65031, 2025-161S
Orbit
LEO
Country
Flag of USUS
Related business
Manufacturer
SpaceX/Seattle
Mission
Operational spacecraft
Bus & Motor
STARLINK V2MO, Unknown motor
Mass
575 kg wet, ~530 kg dry
Launch date (UTC)
2025-07-30 (1 month ago)
Launch vehicle
FALCON 9
Launch site
Air Force Eastern Test Range (AFETR)
Object type
Payload
Rocket body
Debris
Shape & HBR
Unknown
Radar Cross Section
Large (>1 m²)

Expand to show TLE details & history
Last TLE update: 1 day ago

TLE from 1 day ago
0 STARLINK-34677
1 65031U 25161S   25242.04804297  .00053994  00000-0  13497-2 0  9995
2 65031  53.1602 106.8457 0000730  49.8624 310.2445 15.39632957  4854
Epoch: 2025-08-30T01:09Z
TLE epoch observation values (Epoch: 2025-08-30T01:09:10.912Z)
Latitude
-0.00001°
Longitude
111.06229°
Altitude
447.775 km
Speed
7.645 km/s
True Right ascension
07h 07m 22s
True Declination
0° 00' 00"
Sunlit
Object was in daylight at epoch
Visualization orbit readout
Latitude
Unknown
Longitude
Unknown
Altitude
Unknown
Speed
Unknown
Apparent Right ascension
Unknown
Apparent Declination
Unknown
Sunlit
N/A
Visualization observer readout
Local Sidereal Time
16:24:42
Azimuth
Unknown
Elevation
Unknown
Doppler factor
Unknown
Orbital elements
Apogee altitude
447.95 km
Perigee altitude
446.953 km
Semi-major axis
6,825.588 km
Eccentricity
0.00007
Inclination
53.1602°
RAAN
106.8457°
Arg. of periapsis
49.8624°
True anomaly
310.23811°
Mean anomaly
310.2445°
Eccentric anomaly
310.24131°
Mean motion
3.84887 °/min
Orbital period
93.53 mins
BSTAR
0.0013497
Loading maneuver chart data...
Computing Atmospheric mass density...
Loading historical data...
Loading historical data...
Loading historical data...
Loading historical data...
Loading historical data...
Loading historical data...
Loading historical data...

Documentation

Showing up to 5 results
|